Lewiston, ID

5:46 AM PST on February 08, 2016 (GMT -0800)
Lewiston-Nez Perce County

Weather History for KLWS - June, 2013

Change the Weather History Date:

Friday, June 21, 2013

  Actual Average Record
Temperature  
Mean Temperature 60 °F 67 °F  
Max Temperature 68 °F 80 °F 103 °F (1973)
Min Temperature 51 °F 54 °F 43 °F (1960)
Degree Days  
Heating Degree Days 5 2  
Month to date heating degree days 40 59  
Since 1 June heating degree days 40 59  
Since 1 July heating degree days 4633 5156  
Cooling Degree Days 0 4  
Month to date cooling degree days 61 53  
Year to date cooling degree days 118 85  
Since 1 June cooling degree days 61 53  
Growing Degree Days 10 (Base 50)    
Moisture  
Dew Point 49 °F    
Average Humidity 71    
Maximum Humidity 96    
Minimum Humidity 45    
Precipitation  
Precipitation 0.06 in 0.04 in 1.27 in (1967)
Month to date precipitation 1.36 0.95  
Year to date precipitation 5.23 6.89  
Snow  
Snow 0.00 in 0.00 in T in (1930)
Month to date snowfall 0.0 0.0  
Since 1 June snowfall 0.0 0.0  
Since 1 July snowfall 2.6 10.5  
Snow Depth 0.00 in    
Sea Level Pressure  
Sea Level Pressure 30.09 in    
Wind  
Wind Speed 5 mph (NW)    
Max Wind Speed 14 mph    
Max Gust Speed 18 mph    
Visibility 10 miles    
Events Rain    
T = Trace of Precipitation, MM = Missing Value Source: NWS Daily Summary

Daily Weather History Graph

Daily Weather History Graph

Search for Another Location

Airport or City:

Trip Planner

Search our weather history database for the weather conditions in past years. The results will help you decide how hot, cold, wet, or windy it might be!

Date:

Astronomy

Jun. 21, 2013 Rise Set
Actual Time 4:55 AM PDT 8:44 PM PDT
Civil Twilight 4:16 AM PDT 9:23 PM PDT
Nautical Twilight 3:23 AM PDT 10:16 PM PDT
Astronomical Twilight 2:07 AM PDT 11:32 PM PDT
Moon 6:55 PM PDT (6/21) 3:20 AM PDT (6/21)
Length of Visible Light 17h 06m
Length of Day
15h 48m
Waxing Gibbous, 96% of the Moon is Illuminated
Jun 21
Waxing Gibbous
Jun 23
Full
Jun 29
Last Quarter
Jul 8
New
Jul 15
First Quarter

Hourly Weather History & Observations

Time (PDT) Temp. Dew Point Humidity Pressure Visibility Wind Dir Wind Speed Gust Speed Precip Events Conditions
12:56 AM 52.0 °F 48.9 °F 89% 30.07 in 10.0 mi SE 4.6 mph - 0.00 in   Overcast
1:56 AM 53.1 °F 48.9 °F 86% 30.07 in 10.0 mi Calm Calm - 0.00 in   Overcast
2:56 AM 51.1 °F 50.0 °F 96% 30.07 in 10.0 mi NNW 3.5 mph - N/A   Mostly Cloudy
3:56 AM 52.0 °F 48.9 °F 89% 30.07 in 10.0 mi Calm Calm - 0.00 in Rain Light Rain
4:56 AM 52.0 °F 50.0 °F 93% 30.08 in 10.0 mi SE 5.8 mph - 0.00 in Rain Light Rain
5:56 AM 52.0 °F 48.9 °F 89% 30.08 in 10.0 mi Calm Calm - 0.01 in Rain Light Rain
6:46 AM 51.8 °F 50.0 °F 94% 30.09 in 10.0 mi Calm Calm - 0.02 in Rain Light Rain
6:56 AM 52.0 °F 50.0 °F 93% 30.09 in 10.0 mi Calm Calm - 0.03 in Rain Light Rain
7:34 AM 53.6 °F 50.0 °F 88% 30.10 in 10.0 mi Calm Calm - 0.00 in Rain Light Rain
7:53 AM 53.6 °F 51.8 °F 94% 30.11 in 10.0 mi Calm Calm - 0.00 in Rain Light Rain
7:56 AM 53.1 °F 51.1 °F 93% 30.11 in 10.0 mi NE 3.5 mph - 0.01 in Rain Light Rain
8:03 AM 53.6 °F 51.8 °F 94% 30.11 in 10.0 mi ENE 3.5 mph - 0.00 in Rain Light Rain
8:12 AM 53.6 °F 50.0 °F 88% 30.11 in 10.0 mi ENE 3.5 mph - 0.00 in Rain Light Rain
8:21 AM 53.6 °F 50.0 °F 88% 30.11 in 10.0 mi ENE 3.5 mph - 0.00 in Rain Light Rain
8:56 AM 54.0 °F 51.1 °F 90% 30.12 in 10.0 mi NNE 3.5 mph - 0.00 in   Overcast
9:32 AM 55.4 °F 51.8 °F 88% 30.11 in 10.0 mi Calm Calm - 0.00 in   Overcast
9:56 AM 55.0 °F 51.1 °F 86% 30.11 in 10.0 mi WNW 4.6 mph - 0.00 in   Overcast
10:56 AM 57.0 °F 52.0 °F 83% 30.11 in 10.0 mi West 8.1 mph - 0.01 in   Overcast
11:56 AM 60.1 °F 48.9 °F 67% 30.11 in 10.0 mi NNW 6.9 mph - N/A   Scattered Clouds
12:24 PM 60.8 °F 48.2 °F 63% 30.10 in 10.0 mi NW 6.9 mph - N/A   Mostly Cloudy
12:44 PM 62.6 °F 46.4 °F 55% 30.10 in 10.0 mi WNW 5.8 mph - N/A   Scattered Clouds
12:56 PM 64.0 °F 48.0 °F 56% 30.09 in 10.0 mi NNW 9.2 mph - N/A   Partly Cloudy
1:56 PM 64.9 °F 46.9 °F 52% 30.09 in 10.0 mi NW 6.9 mph - N/A   Scattered Clouds
2:56 PM 64.9 °F 46.9 °F 52% 30.09 in 10.0 mi NNW 9.2 mph - N/A   Scattered Clouds
3:56 PM 64.9 °F 45.0 °F 48% 30.08 in 10.0 mi West 10.4 mph - N/A   Mostly Cloudy
4:56 PM 66.0 °F 45.0 °F 47% 30.08 in 10.0 mi Variable 4.6 mph - N/A   Overcast
5:56 PM 66.0 °F 45.0 °F 47% 30.08 in 10.0 mi WNW 9.2 mph - N/A   Partly Cloudy
6:56 PM 66.0 °F 45.0 °F 47% 30.08 in 10.0 mi WNW 11.5 mph - N/A   Scattered Clouds
7:56 PM 64.0 °F 46.0 °F 52% 30.08 in 10.0 mi NW 6.9 mph - N/A   Mostly Cloudy
8:56 PM 61.0 °F 45.0 °F 56% 30.09 in 10.0 mi West 4.6 mph - N/A   Overcast
9:56 PM 57.0 °F 46.0 °F 67% 30.10 in 10.0 mi West 6.9 mph - N/A   Clear
10:56 PM 57.0 °F 46.9 °F 69% 30.10 in 10.0 mi Calm Calm - N/A   Clear
11:56 PM 54.0 °F 46.9 °F 77% 30.10 in 10.0 mi South 5.8 mph - N/A   Overcast